Time,TemperatureF,DewpointF,PressureIn,WindDirection,WindDirectionDegrees,WindSpeedMPH,WindSpeedGustMPH,Humidity,HourlyPrecipIn,Conditions,Clouds,dailyrainin,SoftwareType,DateUTC
2013-03-03 00:00:00,32.0,25.3,29.67,WSW,247,0.0,0.0,76,0.00,,---,0.00,VWS V14.00,2013-03-03 05:00:00,
2013-03-03 00:01:00,32.0,25.3,29.67,WSW,247,0.0,0.0,76,0.00,,---,0.00,VWS V14.00,2013-03-03 05:01:00,
2013-03-03 00:06:00,32.0,25.3,29.67,WSW,247,0.0,0.0,76,0.00,,---,0.00,VWS V14.00,2013-03-03 05:06:00,
2013-03-03 00:11:00,32.0,25.3,29.67,ENE,67,0.0,0.0,76,0.00,,---,0.00,VWS V14.00,2013-03-03 05:11:00,
2013-03-03 00:16:00,32.0,25.3,29.67,ENE,67,0.0,0.0,76,0.00,,---,0.00,VWS V14.00,2013-03-03 05:16:00,
2013-03-03 00:21:00,32.0,25.3,29.67,ENE,67,0.0,0.0,76,0.00,,---,0.00,VWS V14.00,2013-03-03 05:21:00,
2013-03-03 00:26:00,32.0,25.3,29.67,ENE,67,0.0,0.0,76,0.00,,---,0.00,VWS V14.00,2013-03-03 05:26:00,
2013-03-03 00:31:00,32.0,25.3,29.67,ENE,67,0.0,0.0,76,0.00,,---,0.00,VWS V14.00,2013-03-03 05:31:00,
2013-03-03 00:36:00,32.0,25.3,29.67,ENE,67,0.0,0.0,76,0.00,,---,0.00,VWS V14.00,2013-03-03 05:36:00,
2013-03-03 00:41:00,32.0,25.6,29.67,ENE,67,0.0,0.0,77,0.00,,---,0.00,VWS V14.00,2013-03-03 05:41:00,
2013-03-03 00:46:00,32.0,25.6,29.67,ENE,67,0.0,0.0,77,0.00,,---,0.00,VWS V14.00,2013-03-03 05:46:00,
2013-03-03 00:51:00,32.0,25.6,29.67,ENE,67,0.0,0.0,77,0.00,,---,0.00,VWS V14.00,2013-03-03 05:51:00,
2013-03-03 00:56:00,31.0,24.6,29.67,ENE,67,0.0,0.0,77,0.00,,---,0.00,VWS V14.00,2013-03-03 05:56:00,
2013-03-03 01:01:00,31.0,24.6,29.67,ENE,67,0.0,0.0,77,0.00,,---,0.00,VWS V14.00,2013-03-03 06:01:00,
2013-03-03 01:06:00,31.0,24.6,29.67,ENE,67,0.0,0.0,77,0.00,,---,0.00,VWS V14.00,2013-03-03 06:06:00,
2013-03-03 01:11:00,31.0,24.3,29.67,ENE,67,0.0,0.0,76,0.00,,---,0.00,VWS V14.00,2013-03-03 06:11:00,
2013-03-03 01:16:00,31.0,24.3,29.67,ENE,67,0.0,0.0,76,0.00,,---,0.00,VWS V14.00,2013-03-03 06:16:00,
2013-03-03 01:21:00,31.0,24.3,29.67,ENE,67,0.0,0.0,76,0.00,,---,0.00,VWS V14.00,2013-03-03 06:21:00,
2013-03-03 01:26:00,31.0,24.3,29.67,ENE,67,0.0,0.0,76,0.00,,---,0.00,VWS V14.00,2013-03-03 06:26:00,
2013-03-03 01:31:00,31.0,24.3,29.67,ENE,67,0.0,0.0,76,0.00,,---,0.00,VWS V14.00,2013-03-03 06:31:00,
2013-03-03 01:36:00,31.0,24.3,29.67,ENE,67,0.0,0.0,76,0.00,,---,0.00,VWS V14.00,2013-03-03 06:36:00,
2013-03-03 01:41:00,31.0,24.3,29.67,ENE,67,0.0,0.0,76,0.00,,---,0.00,VWS V14.00,2013-03-03 06:41:00,
2013-03-03 01:46:00,31.0,24.3,29.67,ENE,67,0.0,0.0,76,0.00,,---,0.00,VWS V14.00,2013-03-03 06:46:00,
2013-03-03 01:51:00,31.0,24.3,29.67,ENE,67,0.0,0.0,76,0.00,,---,0.00,VWS V14.00,2013-03-03 06:51:00,
2013-03-03 01:56:00,31.0,24.3,29.67,ENE,67,0.0,0.0,76,0.00,,---,0.00,VWS V14.00,2013-03-03 06:56:00,
2013-03-03 02:01:00,31.0,24.3,29.67,ENE,67,0.0,0.0,76,0.00,,---,0.00,VWS V14.00,2013-03-03 07:01:00,
2013-03-03 02:06:00,31.0,24.3,29.66,ENE,67,0.0,0.0,76,0.00,,---,0.00,VWS V14.00,2013-03-03 07:06:00,
2013-03-03 02:11:00,31.0,24.6,29.66,ENE,67,0.0,0.0,77,0.00,,---,0.00,VWS V14.00,2013-03-03 07:11:00,
2013-03-03 02:16:00,31.0,24.6,29.66,ENE,67,0.0,0.0,77,0.00,,---,0.00,VWS V14.00,2013-03-03 07:16:00,
2013-03-03 02:21:00,31.0,24.3,29.66,ENE,67,0.0,0.0,76,0.00,,---,0.00,VWS V14.00,2013-03-03 07:21:00,
2013-03-03 02:26:00,31.0,24.6,29.66,South,180,0.0,0.0,77,0.00,,---,0.00,VWS V14.00,2013-03-03 07:26:00,
2013-03-03 02:31:00,31.0,24.6,29.66,South,180,0.0,0.0,77,0.00,,---,0.00,VWS V14.00,2013-03-03 07:31:00,
2013-03-03 02:36:00,31.0,24.6,29.66,SSE,157,0.0,0.0,77,0.00,,---,0.00,VWS V14.00,2013-03-03 07:36:00,
2013-03-03 02:41:00,31.0,24.6,29.66,SSE,157,0.0,0.0,77,0.00,,---,0.00,VWS V14.00,2013-03-03 07:41:00,
2013-03-03 02:46:00,31.0,24.3,29.66,SSW,202,0.0,0.0,76,0.00,,---,0.00,VWS V14.00,2013-03-03 07:46:00,
2013-03-03 02:51:00,31.0,24.6,29.66,SSW,202,0.0,0.0,77,0.00,,---,0.00,VWS V14.00,2013-03-03 07:51:00,
2013-03-03 02:56:00,31.0,24.3,29.66,SSW,202,0.0,0.0,76,0.00,,---,0.00,VWS V14.00,2013-03-03 07:56:00,
2013-03-03 03:01:00,31.0,24.6,29.66,SSW,202,0.0,0.0,77,0.00,,---,0.00,VWS V14.00,2013-03-03 08:01:00,
2013-03-03 03:06:00,31.0,24.6,29.66,SSW,202,0.0,0.0,77,0.00,,---,0.00,VWS V14.00,2013-03-03 08:06:00,
2013-03-03 03:11:00,31.0,24.6,29.66,SSW,202,0.0,0.0,77,0.00,,---,0.00,VWS V14.00,2013-03-03 08:11:00,
2013-03-03 03:16:00,31.0,24.6,29.66,SSW,202,0.0,0.0,77,0.00,,---,0.00,VWS V14.00,2013-03-03 08:16:00,
2013-03-03 03:20:00,31.0,24.6,29.66,SSW,202,0.0,0.0,77,0.00,,---,0.00,VWS V14.00,2013-03-03 08:20:00,
2013-03-03 03:25:00,31.0,24.6,29.66,SSW,202,0.0,0.0,77,0.00,,---,0.00,VWS V14.00,2013-03-03 08:25:00,
2013-03-03 03:30:00,31.0,24.6,29.66,SSW,202,0.0,0.0,77,0.00,,---,0.00,VWS V14.00,2013-03-03 08:30:00,
2013-03-03 03:35:00,31.0,24.6,29.66,SSW,202,0.0,0.0,77,0.00,,---,0.00,VWS V14.00,2013-03-03 08:35:00,
2013-03-03 03:40:00,31.0,24.6,29.66,SSW,202,0.0,0.0,77,0.00,,---,0.00,VWS V14.00,2013-03-03 08:40:00,
2013-03-03 03:45:00,31.0,24.6,29.65,SSW,202,0.0,0.0,77,0.00,,---,0.00,VWS V14.00,2013-03-03 08:45:00,
2013-03-03 03:50:00,31.0,24.6,29.65,SSW,202,0.0,0.0,77,0.00,,---,0.00,VWS V14.00,2013-03-03 08:50:00,
2013-03-03 03:55:00,31.0,25.0,29.65,SSW,202,0.0,0.0,78,0.00,,---,0.00,VWS V14.00,2013-03-03 08:55:00,
2013-03-03 04:00:00,31.0,24.6,29.65,SSW,202,0.0,0.0,77,0.00,,---,0.00,VWS V14.00,2013-03-03 09:00:00,
2013-03-03 04:05:00,31.0,24.6,29.65,SSW,202,0.0,0.0,77,0.00,,---,0.00,VWS V14.00,2013-03-03 09:05:00,
2013-03-03 04:10:00,31.0,25.0,29.65,SSW,202,0.0,0.0,78,0.00,,---,0.00,VWS V14.00,2013-03-03 09:10:00,
2013-03-03 04:15:00,31.0,25.0,29.65,SSW,202,0.0,0.0,78,0.00,,---,0.00,VWS V14.00,2013-03-03 09:15:00,
2013-03-03 04:20:00,31.0,25.0,29.65,SSW,202,0.0,0.0,78,0.00,,---,0.00,VWS V14.00,2013-03-03 09:20:00,
2013-03-03 04:25:00,31.0,25.0,29.65,SSW,202,0.0,0.0,78,0.00,,---,0.00,VWS V14.00,2013-03-03 09:25:00,
2013-03-03 04:30:00,31.0,25.0,29.65,SSW,202,0.0,0.0,78,0.00,,---,0.00,VWS V14.00,2013-03-03 09:30:00,
2013-03-03 04:35:00,31.0,25.0,29.65,SSW,202,0.0,0.0,78,0.00,,---,0.00,VWS V14.00,2013-03-03 09:35:00,
2013-03-03 04:40:00,31.0,25.0,29.65,SSW,202,0.0,0.0,78,0.00,,---,0.00,VWS V14.00,2013-03-03 09:40:00,
2013-03-03 04:45:00,31.0,25.0,29.65,SSW,202,0.0,0.0,78,0.00,,---,0.00,VWS V14.00,2013-03-03 09:45:00,
2013-03-03 04:50:00,30.0,24.0,29.65,SSW,202,0.0,0.0,78,0.00,,---,0.00,VWS V14.00,2013-03-03 09:50:00,
2013-03-03 04:55:00,30.0,24.0,29.66,SSW,202,0.0,0.0,78,0.00,,---,0.00,VWS V14.00,2013-03-03 09:55:00,
2013-03-03 05:00:00,30.0,24.0,29.66,SSW,202,0.0,0.0,78,0.00,,---,0.00,VWS V14.00,2013-03-03 10:00:00,
2013-03-03 05:05:00,30.0,24.0,29.66,SSW,202,0.0,0.0,78,0.00,,---,0.00,VWS V14.00,2013-03-03 10:05:00,
2013-03-03 05:10:00,30.0,24.0,29.66,SSW,202,0.0,0.0,78,0.00,,---,0.00,VWS V14.00,2013-03-03 10:10:00,
2013-03-03 05:15:00,30.0,24.0,29.66,SSW,202,0.0,0.0,78,0.00,,---,0.00,VWS V14.00,2013-03-03 10:15:00,
2013-03-03 05:20:00,30.0,24.0,29.66,SSW,202,0.0,0.0,78,0.00,,---,0.00,VWS V14.00,2013-03-03 10:20:00,
2013-03-03 05:25:00,30.0,24.3,29.66,East,90,0.0,0.0,79,0.00,,---,0.00,VWS V14.00,2013-03-03 10:25:00,
2013-03-03 05:30:00,30.0,24.6,29.66,SSE,157,0.0,0.0,80,0.00,,---,0.00,VWS V14.00,2013-03-03 10:30:00,
2013-03-03 05:35:00,30.0,24.6,29.66,SSE,157,0.0,0.0,80,0.00,,---,0.00,VWS V14.00,2013-03-03 10:35:00,
2013-03-03 05:40:00,30.0,24.6,29.66,SSE,157,0.0,0.0,80,0.00,,---,0.00,VWS V14.00,2013-03-03 10:40:00,
2013-03-03 05:45:00,30.0,24.6,29.66,SSE,157,0.0,0.0,80,0.00,,---,0.00,VWS V14.00,2013-03-03 10:45:00,
2013-03-03 05:50:00,30.0,24.6,29.66,SSE,157,0.0,0.0,80,0.00,,---,0.00,VWS V14.00,2013-03-03 10:50:00,
2013-03-03 05:55:00,30.0,24.9,29.66,SSE,157,0.0,0.0,81,0.00,,---,0.00,VWS V14.00,2013-03-03 10:55:00,
2013-03-03 06:00:00,29.0,23.9,29.66,SSE,157,0.0,0.0,81,0.00,,---,0.00,VWS V14.00,2013-03-03 11:00:00,
2013-03-03 06:05:00,29.0,23.9,29.66,SSE,157,0.0,0.0,81,0.00,,---,0.00,VWS V14.00,2013-03-03 11:05:00,
2013-03-03 06:10:00,29.0,23.9,29.66,SSE,157,0.0,0.0,81,0.00,,---,0.00,VWS V14.00,2013-03-03 11:10:00,
2013-03-03 06:15:00,29.0,23.9,29.66,SSE,157,0.0,0.0,81,0.00,,---,0.00,VWS V14.00,2013-03-03 11:15:00,
2013-03-03 06:20:00,29.0,24.2,29.66,SSE,157,0.0,0.0,82,0.00,,---,0.00,VWS V14.00,2013-03-03 11:20:00,
2013-03-03 06:25:00,29.0,24.2,29.67,SSE,157,0.0,0.0,82,0.00,,---,0.00,VWS V14.00,2013-03-03 11:25:00,
2013-03-03 06:30:00,28.0,23.2,29.67,SSE,157,0.0,0.0,82,0.00,,---,0.00,VWS V14.00,2013-03-03 11:30:00,
2013-03-03 06:35:00,28.0,23.2,29.67,SSE,157,0.0,0.0,82,0.00,,---,0.00,VWS V14.00,2013-03-03 11:35:00,
2013-03-03 06:40:00,28.0,23.5,29.67,SSE,157,0.0,0.0,83,0.00,,---,0.00,VWS V14.00,2013-03-03 11:40:00,
2013-03-03 06:45:00,29.0,24.5,29.68,SSE,157,0.0,0.0,83,0.00,,---,0.00,VWS V14.00,2013-03-03 11:45:00,
2013-03-03 06:50:00,29.0,24.5,29.68,SSE,157,0.0,0.0,83,0.00,,---,0.00,VWS V14.00,2013-03-03 11:50:00,
2013-03-03 06:55:00,29.0,24.5,29.68,SSE,157,0.0,0.0,83,0.00,,---,0.00,VWS V14.00,2013-03-03 11:55:00,
2013-03-03 07:00:00,29.0,24.5,29.68,SSE,157,0.0,0.0,83,0.00,,---,0.00,VWS V14.00,2013-03-03 12:00:00,
2013-03-03 07:05:00,29.0,24.5,29.68,SSE,157,0.0,0.0,83,0.00,,---,0.00,VWS V14.00,2013-03-03 12:05:00,
2013-03-03 07:10:00,29.0,24.5,29.68,SSE,157,0.0,0.0,83,0.00,,---,0.00,VWS V14.00,2013-03-03 12:10:00,
2013-03-03 07:15:00,30.0,25.5,29.67,SSE,157,0.0,0.0,83,0.00,,---,0.00,VWS V14.00,2013-03-03 12:15:00,
2013-03-03 07:20:00,30.0,25.5,29.67,SSE,157,0.0,0.0,83,0.00,,---,0.00,VWS V14.00,2013-03-03 12:20:00,
2013-03-03 07:25:00,30.0,25.5,29.67,SSE,157,0.0,0.0,83,0.00,,---,0.00,VWS V14.00,2013-03-03 12:25:00,
2013-03-03 07:30:00,30.0,25.5,29.67,SSE,157,0.0,0.0,83,0.00,,---,0.00,VWS V14.00,2013-03-03 12:30:00,
2013-03-03 07:35:00,30.0,25.5,29.67,SSE,157,0.0,0.0,83,0.00,,---,0.00,VWS V14.00,2013-03-03 12:35:00,
2013-03-03 07:40:00,31.0,26.5,29.67,SSE,157,0.0,0.0,83,0.00,,---,0.00,VWS V14.00,2013-03-03 12:40:00,
2013-03-03 07:45:00,31.0,26.5,29.67,SSE,157,0.0,0.0,83,0.00,,---,0.00,VWS V14.00,2013-03-03 12:45:00,
2013-03-03 07:50:00,30.0,26.0,29.67,SSE,157,0.0,0.0,85,0.00,,---,0.00,VWS V14.00,2013-03-03 12:50:00,
2013-03-03 07:55:00,30.0,26.0,29.67,SSE,157,0.0,0.0,85,0.00,,---,0.00,VWS V14.00,2013-03-03 12:55:00,
2013-03-03 08:00:00,30.0,26.0,29.67,SSE,157,0.0,0.0,85,0.00,,---,0.00,VWS V14.00,2013-03-03 13:00:00,
2013-03-03 08:05:00,31.0,27.0,29.67,SSE,157,0.0,0.0,85,0.00,,---,0.00,VWS V14.00,2013-03-03 13:05:00,
2013-03-03 08:10:00,31.0,27.3,29.67,SSE,157,0.0,0.0,86,0.00,,---,0.00,VWS V14.00,2013-03-03 13:10:00,
2013-03-03 08:15:00,31.0,27.3,29.67,SSE,157,0.0,0.0,86,0.00,,---,0.00,VWS V14.00,2013-03-03 13:15:00,
2013-03-03 08:20:00,31.0,27.6,29.67,SW,225,0.0,0.0,87,0.00,,---,0.00,VWS V14.00,2013-03-03 13:20:00,
2013-03-03 08:25:00,31.0,27.6,29.66,SE,135,0.0,0.0,87,0.00,,---,0.00,VWS V14.00,2013-03-03 13:25:00,
2013-03-03 08:30:00,31.0,27.9,29.66,South,180,0.0,0.0,88,0.00,,---,0.00,VWS V14.00,2013-03-03 13:30:00,
2013-03-03 08:35:00,31.0,27.9,29.66,SSW,202,0.0,0.0,88,0.00,,---,0.00,VWS V14.00,2013-03-03 13:35:00,
2013-03-03 08:40:00,31.0,27.9,29.66,SW,225,0.0,0.0,88,0.00,,---,0.00,VWS V14.00,2013-03-03 13:40:00,
2013-03-03 08:45:00,31.0,27.9,29.66,SW,225,0.0,0.0,88,0.00,,---,0.00,VWS V14.00,2013-03-03 13:45:00,
2013-03-03 08:50:00,32.0,28.9,29.66,East,90,0.0,0.0,88,0.00,,---,0.00,VWS V14.00,2013-03-03 13:50:00,
2013-03-03 08:55:00,32.0,28.9,29.65,SW,225,0.0,0.0,88,0.00,,---,0.00,VWS V14.00,2013-03-03 13:55:00,
2013-03-03 09:00:00,32.0,28.6,29.65,ESE,112,0.0,0.0,87,0.00,,---,0.00,VWS V14.00,2013-03-03 14:00:00,
2013-03-03 09:05:00,32.0,28.6,29.66,South,180,0.0,0.0,87,0.00,,---,0.00,VWS V14.00,2013-03-03 14:05:00,
2013-03-03 09:10:00,32.0,28.6,29.66,South,180,0.0,0.0,87,0.00,,---,0.00,VWS V14.00,2013-03-03 14:10:00,
2013-03-03 09:15:00,32.0,28.6,29.64,SSW,202,0.0,0.0,87,0.00,,---,0.00,VWS V14.00,2013-03-03 14:15:00,
2013-03-03 09:20:00,32.0,28.3,29.64,NE,45,0.0,0.0,86,0.00,,---,0.00,VWS V14.00,2013-03-03 14:20:00,
2013-03-03 09:25:00,32.0,28.3,29.65,ENE,67,0.0,0.0,86,0.00,,---,0.00,VWS V14.00,2013-03-03 14:25:00,
2013-03-03 09:30:00,32.0,28.3,29.65,SSE,157,0.0,0.0,86,0.00,,---,0.00,VWS V14.00,2013-03-03 14:30:00,
2013-03-03 09:35:00,32.0,28.0,29.64,West,270,0.0,0.0,85,0.00,,---,0.00,VWS V14.00,2013-03-03 14:35:00,
2013-03-03 09:40:00,32.0,28.0,29.64,West,270,0.0,0.0,85,0.00,,---,0.00,VWS V14.00,2013-03-03 14:40:00,
2013-03-03 09:45:00,32.0,28.0,29.64,SW,225,0.0,0.0,85,0.00,,---,0.00,VWS V14.00,2013-03-03 14:45:00,
2013-03-03 09:50:00,32.0,28.0,29.64,East,90,1.0,1.0,85,0.00,,---,0.00,VWS V14.00,2013-03-03 14:50:00,
2013-03-03 09:55:00,33.0,29.0,29.64,NE,45,0.0,0.0,85,0.00,,---,0.00,VWS V14.00,2013-03-03 14:55:00,
2013-03-03 10:00:00,33.0,29.0,29.64,NE,45,0.0,0.0,85,0.00,,---,0.01,VWS V14.00,2013-03-03 15:00:00,
2013-03-03 10:05:00,34.0,30.0,29.64,North,360,0.0,0.0,85,0.01,,---,0.01,VWS V14.00,2013-03-03 15:05:00,
2013-03-03 10:10:00,34.0,29.7,29.64,SW,225,0.0,1.0,84,0.01,,---,0.01,VWS V14.00,2013-03-03 15:10:00,
2013-03-03 10:15:00,34.0,29.4,29.63,South,180,0.0,0.0,83,0.01,,---,0.01,VWS V14.00,2013-03-03 15:15:00,
2013-03-03 10:20:00,34.0,29.1,29.63,SW,225,0.0,2.0,82,0.01,,---,0.01,VWS V14.00,2013-03-03 15:20:00,
2013-03-03 10:25:00,34.0,29.4,29.63,SSW,202,0.0,0.0,83,0.01,,---,0.01,VWS V14.00,2013-03-03 15:25:00,
2013-03-03 10:30:00,34.0,29.1,29.63,SW,225,0.0,0.0,82,0.01,,---,0.01,VWS V14.00,2013-03-03 15:30:00,
2013-03-03 10:35:00,34.0,29.1,29.63,East,90,1.0,1.0,82,0.01,,---,0.01,VWS V14.00,2013-03-03 15:35:00,
2013-03-03 10:40:00,34.0,29.4,29.63,SW,225,0.0,3.0,83,0.01,,---,0.01,VWS V14.00,2013-03-03 15:40:00,
2013-03-03 10:45:00,34.0,28.8,29.62,SSE,157,0.0,0.0,81,0.01,,---,0.01,VWS V14.00,2013-03-03 15:45:00,
2013-03-03 10:50:00,35.0,29.8,29.62,East,90,0.0,0.0,81,0.01,,---,0.01,VWS V14.00,2013-03-03 15:50:00,
2013-03-03 10:55:00,35.0,29.8,29.62,NE,45,0.0,0.0,81,0.01,,---,0.01,VWS V14.00,2013-03-03 15:55:00,
2013-03-03 11:00:00,35.0,29.2,29.62,SE,135,0.0,1.0,79,0.01,,---,0.01,VWS V14.00,2013-03-03 16:00:00,
2013-03-03 11:05:00,35.0,29.2,29.61,SE,135,0.0,0.0,79,0.00,,---,0.01,VWS V14.00,2013-03-03 16:05:00,
2013-03-03 11:10:00,36.0,30.1,29.61,SW,225,0.0,0.0,79,0.00,,---,0.01,VWS V14.00,2013-03-03 16:10:00,
2013-03-03 11:15:00,36.0,30.1,29.61,SSW,202,0.0,0.0,79,0.00,,---,0.01,VWS V14.00,2013-03-03 16:15:00,
2013-03-03 11:20:00,36.0,30.1,29.61,SSW,202,0.0,0.0,79,0.00,,---,0.01,VWS V14.00,2013-03-03 16:20:00,
2013-03-03 11:25:00,36.0,30.1,29.61,SW,225,0.0,0.0,79,0.00,,---,0.01,VWS V14.00,2013-03-03 16:25:00,
2013-03-03 11:30:00,36.0,30.1,29.61,SW,225,0.0,0.0,79,0.00,,---,0.01,VWS V14.00,2013-03-03 16:30:00,
2013-03-03 11:35:00,36.0,29.8,29.61,SW,225,0.0,0.0,78,0.00,,---,0.01,VWS V14.00,2013-03-03 16:35:00,
2013-03-03 11:40:00,37.0,30.5,29.61,SW,225,0.0,0.0,77,0.00,,---,0.01,VWS V14.00,2013-03-03 16:40:00,
2013-03-03 11:45:00,37.0,30.1,29.60,SW,225,0.0,0.0,76,0.00,,---,0.01,VWS V14.00,2013-03-03 16:45:00,
2013-03-03 11:50:00,38.0,30.5,29.60,SW,225,0.0,0.0,74,0.00,,---,0.01,VWS V14.00,2013-03-03 16:50:00,
2013-03-03 11:55:00,38.0,30.1,29.59,SW,225,0.0,0.0,73,0.00,,---,0.01,VWS V14.00,2013-03-03 16:55:00,
2013-03-03 12:00:00,38.0,30.1,29.59,SW,225,0.0,0.0,73,0.00,,---,0.01,VWS V14.00,2013-03-03 17:00:00,
2013-03-03 12:05:00,38.0,30.1,29.59,SW,225,0.0,0.0,73,0.00,,---,0.01,VWS V14.00,2013-03-03 17:05:00,
2013-03-03 12:10:00,38.0,30.1,29.59,South,180,0.0,0.0,73,0.00,,---,0.01,VWS V14.00,2013-03-03 17:10:00,
2013-03-03 12:15:00,38.0,29.8,29.58,ESE,112,0.0,0.0,72,0.00,,---,0.01,VWS V14.00,2013-03-03 17:15:00,
2013-03-03 12:20:00,38.0,30.1,29.58,East,90,0.0,0.0,73,0.00,,---,0.01,VWS V14.00,2013-03-03 17:20:00,
2013-03-03 12:25:00,38.0,29.5,29.58,ENE,67,0.0,1.0,71,0.00,,---,0.01,VWS V14.00,2013-03-03 17:25:00,
2013-03-03 12:30:00,38.0,29.8,29.58,ENE,67,0.0,0.0,72,0.00,,---,0.01,VWS V14.00,2013-03-03 17:30:00,
2013-03-03 12:35:00,39.0,30.4,29.57,NNE,22,0.0,0.0,71,0.00,,---,0.01,VWS V14.00,2013-03-03 17:35:00,
2013-03-03 12:40:00,40.0,31.0,29.57,North,360,0.0,0.0,70,0.00,,---,0.01,VWS V14.00,2013-03-03 17:40:00,
2013-03-03 12:45:00,40.0,30.3,29.56,SW,225,0.0,1.0,68,0.00,,---,0.01,VWS V14.00,2013-03-03 17:45:00,
2013-03-03 12:50:00,39.0,29.7,29.56,WNW,292,0.0,0.0,69,0.00,,---,0.01,VWS V14.00,2013-03-03 17:50:00,
2013-03-03 12:55:00,39.0,29.7,29.56,WNW,292,0.0,0.0,69,0.00,,---,0.01,VWS V14.00,2013-03-03 17:55:00,
2013-03-03 13:00:00,40.0,30.7,29.56,SW,225,0.0,0.0,69,0.00,,---,0.01,VWS V14.00,2013-03-03 18:00:00,
2013-03-03 13:05:00,40.0,30.3,29.56,SSW,202,0.0,0.0,68,0.00,,---,0.01,VWS V14.00,2013-03-03 18:05:00,
2013-03-03 13:10:00,40.0,29.9,29.56,West,270,0.0,0.0,67,0.00,,---,0.01,VWS V14.00,2013-03-03 18:10:00,
2013-03-03 13:15:00,40.0,29.9,29.56,South,180,0.0,0.0,67,0.00,,---,0.01,VWS V14.00,2013-03-03 18:15:00,
2013-03-03 13:20:00,40.0,30.3,29.56,SW,225,0.0,0.0,68,0.00,,---,0.01,VWS V14.00,2013-03-03 18:20:00,
2013-03-03 13:25:00,39.0,29.4,29.56,South,180,0.0,0.0,68,0.00,,---,0.01,VWS V14.00,2013-03-03 18:25:00,
2013-03-03 13:30:00,39.0,29.4,29.56,NW,315,0.0,0.0,68,0.00,,---,0.01,VWS V14.00,2013-03-03 18:30:00,
2013-03-03 13:35:00,39.0,29.4,29.56,SSW,202,0.0,0.0,68,0.00,,---,0.01,VWS V14.00,2013-03-03 18:35:00,
2013-03-03 13:40:00,39.0,29.4,29.56,NNE,22,0.0,0.0,68,0.00,,---,0.01,VWS V14.00,2013-03-03 18:40:00,
2013-03-03 13:45:00,39.0,29.7,29.56,NNE,22,0.0,0.0,69,0.00,,---,0.01,VWS V14.00,2013-03-03 18:45:00,
2013-03-03 13:50:00,39.0,30.1,29.56,SSW,202,0.0,0.0,70,0.00,,---,0.01,VWS V14.00,2013-03-03 18:50:00,
2013-03-03 13:55:00,39.0,30.4,29.56,SW,225,0.0,0.0,71,0.00,,---,0.01,VWS V14.00,2013-03-03 18:55:00,
2013-03-03 14:00:00,39.0,30.4,29.56,SW,225,0.0,0.0,71,0.00,,---,0.01,VWS V14.00,2013-03-03 19:00:00,
2013-03-03 14:05:00,39.0,30.4,29.56,South,180,0.0,0.0,71,0.00,,---,0.01,VWS V14.00,2013-03-03 19:05:00,
2013-03-03 14:10:00,39.0,30.4,29.56,South,180,0.0,0.0,71,0.00,,---,0.01,VWS V14.00,2013-03-03 19:10:00,
2013-03-03 14:15:00,39.0,30.4,29.56,South,180,1.0,1.0,71,0.00,,---,0.01,VWS V14.00,2013-03-03 19:15:00,
2013-03-03 14:20:00,39.0,30.8,29.56,SW,225,0.0,0.0,72,0.00,,---,0.01,VWS V14.00,2013-03-03 19:20:00,
2013-03-03 14:25:00,39.0,31.1,29.56,SW,225,0.0,0.0,73,0.00,,---,0.01,VWS V14.00,2013-03-03 19:25:00,
2013-03-03 14:30:00,39.0,31.1,29.56,SE,135,0.0,0.0,73,0.00,,---,0.01,VWS V14.00,2013-03-03 19:30:00,
2013-03-03 14:35:00,38.0,30.1,29.56,SW,225,0.0,0.0,73,0.00,,---,0.01,VWS V14.00,2013-03-03 19:35:00,
2013-03-03 14:40:00,38.0,30.8,29.56,SW,225,0.0,0.0,75,0.00,,---,0.01,VWS V14.00,2013-03-03 19:40:00,
2013-03-03 14:45:00,38.0,31.1,29.56,South,180,0.0,0.0,76,0.00,,---,0.01,VWS V14.00,2013-03-03 19:45:00,
2013-03-03 14:50:00,38.0,31.1,29.56,SSW,202,0.0,0.0,76,0.00,,---,0.01,VWS V14.00,2013-03-03 19:50:00,
2013-03-03 14:55:00,38.0,31.1,29.56,SW,225,0.0,0.0,76,0.00,,---,0.01,VWS V14.00,2013-03-03 19:55:00,
2013-03-03 15:00:00,38.0,31.1,29.56,SW,225,0.0,0.0,76,0.00,,---,0.01,VWS V14.00,2013-03-03 20:00:00,
2013-03-03 15:05:00,38.0,31.1,29.56,SSW,202,0.0,0.0,76,0.00,,---,0.01,VWS V14.00,2013-03-03 20:05:00,
2013-03-03 15:10:00,38.0,31.1,29.56,SSW,202,0.0,0.0,76,0.00,,---,0.01,VWS V14.00,2013-03-03 20:10:00,
2013-03-03 15:15:00,38.0,30.8,29.56,SSW,202,0.0,0.0,75,0.00,,---,0.01,VWS V14.00,2013-03-03 20:15:00,
2013-03-03 15:20:00,38.0,30.8,29.56,SSW,202,0.0,0.0,75,0.00,,---,0.01,VWS V14.00,2013-03-03 20:20:00,
2013-03-03 15:25:00,38.0,30.1,29.56,SW,225,0.0,0.0,73,0.00,,---,0.01,VWS V14.00,2013-03-03 20:25:00,
2013-03-03 15:30:00,38.0,29.5,29.56,SW,225,1.0,1.0,71,0.00,,---,0.01,VWS V14.00,2013-03-03 20:30:00,
2013-03-03 15:35:00,38.0,29.5,29.56,NE,45,0.0,0.0,71,0.00,,---,0.01,VWS V14.00,2013-03-03 20:35:00,
2013-03-03 15:40:00,39.0,30.8,29.56,NE,45,0.0,0.0,72,0.00,,---,0.01,VWS V14.00,2013-03-03 20:40:00,
2013-03-03 15:45:00,39.0,30.8,29.56,SSW,202,0.0,0.0,72,0.00,,---,0.01,VWS V14.00,2013-03-03 20:45:00,
2013-03-03 15:50:00,39.0,30.8,29.56,South,180,0.0,0.0,72,0.00,,---,0.01,VWS V14.00,2013-03-03 20:50:00,
2013-03-03 15:55:00,39.0,30.8,29.56,South,180,0.0,0.0,72,0.00,,---,0.01,VWS V14.00,2013-03-03 20:55:00,
2013-03-03 16:00:00,39.0,30.8,29.56,South,180,0.0,0.0,72,0.00,,---,0.01,VWS V14.00,2013-03-03 21:00:00,
2013-03-03 16:05:00,39.0,31.1,29.56,SSW,202,0.0,0.0,73,0.00,,---,0.01,VWS V14.00,2013-03-03 21:05:00,
2013-03-03 16:10:00,38.0,30.1,29.56,SSW,202,0.0,0.0,73,0.00,,---,0.01,VWS V14.00,2013-03-03 21:10:00,
2013-03-03 16:15:00,38.0,30.1,29.56,SSW,202,0.0,0.0,73,0.00,,---,0.01,VWS V14.00,2013-03-03 21:15:00,
2013-03-03 16:20:00,38.0,29.8,29.56,SSW,202,0.0,0.0,72,0.00,,---,0.01,VWS V14.00,2013-03-03 21:20:00,
2013-03-03 16:25:00,38.0,29.5,29.57,WSW,247,0.0,0.0,71,0.00,,---,0.01,VWS V14.00,2013-03-03 21:25:00,
2013-03-03 16:30:00,38.0,29.5,29.57,WSW,247,0.0,0.0,71,0.00,,---,0.01,VWS V14.00,2013-03-03 21:30:00,
2013-03-03 16:35:00,38.0,29.5,29.57,WSW,247,0.0,0.0,71,0.00,,---,0.01,VWS V14.00,2013-03-03 21:35:00,
2013-03-03 16:40:00,38.0,29.5,29.57,WSW,247,0.0,0.0,71,0.00,,---,0.01,VWS V14.00,2013-03-03 21:40:00,
2013-03-03 16:45:00,38.0,29.5,29.57,WSW,247,0.0,0.0,71,0.00,,---,0.01,VWS V14.00,2013-03-03 21:45:00,
2013-03-03 16:50:00,38.0,29.1,29.57,NNE,22,0.0,0.0,70,0.00,,---,0.01,VWS V14.00,2013-03-03 21:50:00,
2013-03-03 16:55:00,38.0,29.5,29.57,SSW,202,0.0,0.0,71,0.00,,---,0.01,VWS V14.00,2013-03-03 21:55:00,
2013-03-03 17:00:00,37.0,28.5,29.57,SW,225,0.0,0.0,71,0.00,,---,0.01,VWS V14.00,2013-03-03 22:00:00,
2013-03-03 17:05:00,37.0,28.5,29.58,West,270,0.0,0.0,71,0.00,,---,0.01,VWS V14.00,2013-03-03 22:05:00,
2013-03-03 17:10:00,37.0,28.5,29.58,West,270,0.0,0.0,71,0.00,,---,0.01,VWS V14.00,2013-03-03 22:10:00,
2013-03-03 17:15:00,37.0,28.5,29.58,West,270,0.0,0.0,71,0.00,,---,0.01,VWS V14.00,2013-03-03 22:15:00,
2013-03-03 17:20:00,37.0,28.8,29.58,West,270,0.0,0.0,72,0.00,,---,0.01,VWS V14.00,2013-03-03 22:20:00,
2013-03-03 17:25:00,37.0,28.8,29.58,WSW,247,0.0,0.0,72,0.00,,---,0.01,VWS V14.00,2013-03-03 22:25:00,
2013-03-03 17:30:00,36.0,28.2,29.58,SSW,202,0.0,0.0,73,0.00,,---,0.01,VWS V14.00,2013-03-03 22:30:00,
2013-03-03 17:35:00,36.0,28.5,29.59,SSW,202,0.0,0.0,74,0.00,,---,0.01,VWS V14.00,2013-03-03 22:35:00,
2013-03-03 17:40:00,36.0,28.5,29.59,SW,225,0.0,0.0,74,0.00,,---,0.01,VWS V14.00,2013-03-03 22:40:00,
2013-03-03 17:45:00,36.0,28.9,29.59,SW,225,0.0,0.0,75,0.00,,---,0.01,VWS V14.00,2013-03-03 22:45:00,
2013-03-03 17:50:00,35.0,28.5,29.59,SW,225,0.0,0.0,77,0.00,,---,0.01,VWS V14.00,2013-03-03 22:50:00,
2013-03-03 17:55:00,35.0,28.9,29.60,SW,225,0.0,0.0,78,0.00,,---,0.01,VWS V14.00,2013-03-03 22:55:00,
2013-03-03 18:00:00,35.0,29.8,29.60,SW,225,0.0,0.0,81,0.00,,---,0.01,VWS V14.00,2013-03-03 23:00:00,
2013-03-03 18:05:00,34.0,28.8,29.60,SW,225,0.0,0.0,81,0.00,,---,0.01,VWS V14.00,2013-03-03 23:05:00,
2013-03-03 18:10:00,34.0,29.1,29.60,SW,225,0.0,0.0,82,0.00,,---,0.01,VWS V14.00,2013-03-03 23:10:00,
2013-03-03 18:15:00,34.0,29.4,29.60,SW,225,0.0,0.0,83,0.00,,---,0.01,VWS V14.00,2013-03-03 23:15:00,
2013-03-03 18:20:00,34.0,29.7,29.60,SW,225,0.0,0.0,84,0.00,,---,0.01,VWS V14.00,2013-03-03 23:20:00,
2013-03-03 18:25:00,34.0,29.7,29.61,South,180,0.0,0.0,84,0.00,,---,0.01,VWS V14.00,2013-03-03 23:25:00,
2013-03-03 18:30:00,34.0,29.7,29.61,South,180,0.0,0.0,84,0.00,,---,0.01,VWS V14.00,2013-03-03 23:30:00,
2013-03-03 18:35:00,33.0,28.7,29.62,SSE,157,0.0,0.0,84,0.00,,---,0.01,VWS V14.00,2013-03-03 23:35:00,
2013-03-03 18:40:00,33.0,28.7,29.62,South,180,0.0,0.0,84,0.00,,---,0.01,VWS V14.00,2013-03-03 23:40:00,
2013-03-03 18:45:00,33.0,28.7,29.62,South,180,0.0,0.0,84,0.00,,---,0.01,VWS V14.00,2013-03-03 23:45:00,
2013-03-03 18:50:00,33.0,28.7,29.62,South,180,0.0,0.0,84,0.00,,---,0.01,VWS V14.00,2013-03-03 23:50:00,
2013-03-03 18:55:00,33.0,28.7,29.62,South,180,0.0,0.0,84,0.00,,---,0.01,VWS V14.00,2013-03-03 23:55:00,
2013-03-03 19:00:00,33.0,28.7,29.62,South,180,0.0,0.0,84,0.00,,---,0.01,VWS V14.00,2013-03-04 00:00:00,
2013-03-03 19:05:00,33.0,28.7,29.62,South,180,0.0,0.0,84,0.00,,---,0.01,VWS V14.00,2013-03-04 00:05:00,
2013-03-03 19:10:00,33.0,28.7,29.62,South,180,0.0,0.0,84,0.00,,---,0.01,VWS V14.00,2013-03-04 00:10:00,
2013-03-03 19:15:00,33.0,28.7,29.62,South,180,0.0,0.0,84,0.00,,---,0.01,VWS V14.00,2013-03-04 00:15:00,
2013-03-03 19:20:00,33.0,28.7,29.62,SSW,202,0.0,0.0,84,0.00,,---,0.01,VWS V14.00,2013-03-04 00:20:00,
2013-03-03 19:25:00,33.0,28.7,29.62,SSW,202,0.0,0.0,84,0.00,,---,0.01,VWS V14.00,2013-03-04 00:25:00,
2013-03-03 19:30:00,33.0,28.7,29.62,SSW,202,0.0,0.0,84,0.00,,---,0.01,VWS V14.00,2013-03-04 00:30:00,
2013-03-03 19:35:00,33.0,28.7,29.62,SSW,202,0.0,0.0,84,0.00,,---,0.01,VWS V14.00,2013-03-04 00:35:00,
2013-03-03 19:40:00,33.0,29.0,29.62,SSW,202,0.0,0.0,85,0.00,,---,0.01,VWS V14.00,2013-03-04 00:40:00,
2013-03-03 19:45:00,33.0,28.7,29.62,SSW,202,0.0,0.0,84,0.00,,---,0.01,VWS V14.00,2013-03-04 00:45:00,
2013-03-03 19:50:00,33.0,28.7,29.62,SSW,202,0.0,0.0,84,0.00,,---,0.01,VWS V14.00,2013-03-04 00:50:00,
2013-03-03 19:55:00,33.0,28.7,29.62,SSW,202,0.0,0.0,84,0.00,,---,0.01,VWS V14.00,2013-03-04 00:55:00,
2013-03-03 20:00:00,33.0,28.7,29.62,SE,135,0.0,0.0,84,0.00,,---,0.01,VWS V14.00,2013-03-04 01:00:00,
2013-03-03 20:05:00,33.0,28.4,29.62,West,270,0.0,0.0,83,0.00,,---,0.01,VWS V14.00,2013-03-04 01:05:00,
2013-03-03 20:10:00,33.0,28.1,29.62,WNW,292,0.0,0.0,82,0.00,,---,0.01,VWS V14.00,2013-03-04 01:10:00,
2013-03-03 20:15:00,34.0,28.8,29.63,South,180,0.0,0.0,81,0.00,,---,0.01,VWS V14.00,2013-03-04 01:15:00,
2013-03-03 20:20:00,34.0,28.8,29.63,South,180,0.0,0.0,81,0.00,,---,0.01,VWS V14.00,2013-03-04 01:20:00,
2013-03-03 20:25:00,34.0,28.5,29.62,SW,225,0.0,0.0,80,0.00,,---,0.01,VWS V14.00,2013-03-04 01:25:00,
2013-03-03 20:30:00,34.0,28.2,29.62,ESE,112,0.0,0.0,79,0.00,,---,0.01,VWS V14.00,2013-03-04 01:30:00,
2013-03-03 20:35:00,34.0,28.2,29.63,SW,225,0.0,0.0,79,0.00,,---,0.01,VWS V14.00,2013-03-04 01:35:00,
2013-03-03 20:40:00,34.0,28.2,29.63,SSW,202,0.0,0.0,79,0.00,,---,0.01,VWS V14.00,2013-03-04 01:40:00,
2013-03-03 20:45:00,34.0,28.2,29.62,SSW,202,0.0,0.0,79,0.00,,---,0.01,VWS V14.00,2013-03-04 01:45:00,
2013-03-03 20:50:00,34.0,28.2,29.62,SSW,202,0.0,0.0,79,0.00,,---,0.01,VWS V14.00,2013-03-04 01:50:00,
2013-03-03 20:55:00,34.0,27.9,29.62,North,360,0.0,0.0,78,0.00,,---,0.01,VWS V14.00,2013-03-04 01:55:00,
2013-03-03 21:00:00,34.0,27.6,29.62,SSW,202,0.0,0.0,77,0.00,,---,0.01,VWS V14.00,2013-03-04 02:00:00,
2013-03-03 21:05:00,34.0,27.6,29.63,NW,315,0.0,0.0,77,0.00,,---,0.01,VWS V14.00,2013-03-04 02:05:00,
2013-03-03 21:10:00,34.0,27.6,29.63,SW,225,0.0,0.0,77,0.00,,---,0.01,VWS V14.00,2013-03-04 02:10:00,
2013-03-03 21:15:00,34.0,27.6,29.63,South,180,0.0,0.0,77,0.00,,---,0.01,VWS V14.00,2013-03-04 02:15:00,
2013-03-03 21:20:00,34.0,27.6,29.63,South,180,0.0,0.0,77,0.00,,---,0.01,VWS V14.00,2013-03-04 02:20:00,
2013-03-03 21:25:00,34.0,27.6,29.63,SSW,202,0.0,0.0,77,0.00,,---,0.01,VWS V14.00,2013-03-04 02:25:00,
2013-03-03 21:30:00,33.0,26.6,29.63,West,270,0.0,0.0,77,0.00,,---,0.01,VWS V14.00,2013-03-04 02:30:00,
2013-03-03 21:35:00,33.0,26.6,29.63,ENE,67,0.0,0.0,77,0.00,,---,0.01,VWS V14.00,2013-03-04 02:35:00,
2013-03-03 21:40:00,33.0,26.6,29.63,SSE,157,0.0,0.0,77,0.00,,---,0.01,VWS V14.00,2013-03-04 02:40:00,
2013-03-03 21:45:00,33.0,26.6,29.63,South,180,0.0,0.0,77,0.00,,---,0.01,VWS V14.00,2013-03-04 02:45:00,
2013-03-03 21:50:00,33.0,26.6,29.63,SW,225,0.0,0.0,77,0.00,,---,0.01,VWS V14.00,2013-03-04 02:50:00,
2013-03-03 21:55:00,33.0,26.6,29.63,SW,225,0.0,0.0,77,0.00,,---,0.01,VWS V14.00,2013-03-04 02:55:00,
2013-03-03 22:00:00,33.0,26.6,29.63,SW,225,0.0,0.0,77,0.00,,---,0.01,VWS V14.00,2013-03-04 03:00:00,
2013-03-03 22:05:00,33.0,26.6,29.62,SW,225,0.0,0.0,77,0.00,,---,0.01,VWS V14.00,2013-03-04 03:05:00,
2013-03-03 22:10:00,33.0,26.6,29.62,South,180,0.0,0.0,77,0.00,,---,0.01,VWS V14.00,2013-03-04 03:10:00,
2013-03-03 22:15:00,33.0,26.6,29.62,SW,225,0.0,0.0,77,0.00,,---,0.01,VWS V14.00,2013-03-04 03:15:00,
2013-03-03 22:20:00,33.0,26.6,29.62,West,270,0.0,0.0,77,0.00,,---,0.01,VWS V14.00,2013-03-04 03:20:00,
2013-03-03 22:25:00,33.0,26.6,29.62,West,270,0.0,0.0,77,0.00,,---,0.01,VWS V14.00,2013-03-04 03:25:00,
2013-03-03 22:30:00,33.0,26.6,29.62,WSW,247,0.0,0.0,77,0.00,,---,0.01,VWS V14.00,2013-03-04 03:30:00,
2013-03-03 22:35:00,32.0,25.9,29.62,SW,225,0.0,0.0,78,0.00,,---,0.01,VWS V14.00,2013-03-04 03:35:00,
2013-03-03 22:40:00,32.0,25.9,29.62,WSW,247,0.0,0.0,78,0.00,,---,0.01,VWS V14.00,2013-03-04 03:40:00,
2013-03-03 22:45:00,32.0,25.9,29.63,SW,225,0.0,0.0,78,0.00,,---,0.01,VWS V14.00,2013-03-04 03:45:00,
2013-03-03 22:50:00,32.0,25.6,29.63,SSW,202,0.0,0.0,77,0.00,,---,0.01,VWS V14.00,2013-03-04 03:50:00,
2013-03-03 22:55:00,32.0,25.6,29.63,NNW,337,0.0,0.0,77,0.00,,---,0.01,VWS V14.00,2013-03-04 03:55:00,
2013-03-03 23:00:00,32.0,25.6,29.63,NW,315,0.0,0.0,77,0.00,,---,0.01,VWS V14.00,2013-03-04 04:00:00,
2013-03-03 23:05:00,32.0,25.6,29.63,WSW,247,0.0,0.0,77,0.00,,---,0.01,VWS V14.00,2013-03-04 04:05:00,
2013-03-03 23:10:00,32.0,25.6,29.63,SSW,202,0.0,0.0,77,0.00,,---,0.01,VWS V14.00,2013-03-04 04:10:00,
2013-03-03 23:15:00,32.0,25.6,29.63,SSW,202,0.0,0.0,77,0.00,,---,0.01,VWS V14.00,2013-03-04 04:15:00,
2013-03-03 23:20:00,32.0,25.3,29.63,SW,225,0.0,0.0,76,0.00,,---,0.01,VWS V14.00,2013-03-04 04:20:00,
2013-03-03 23:25:00,32.0,25.3,29.63,SW,225,0.0,0.0,76,0.00,,---,0.01,VWS V14.00,2013-03-04 04:25:00,
2013-03-03 23:30:00,32.0,25.3,29.63,WSW,247,0.0,0.0,76,0.00,,---,0.01,VWS V14.00,2013-03-04 04:30:00,
2013-03-03 23:35:00,32.0,25.3,29.63,WNW,292,0.0,0.0,76,0.00,,---,0.01,VWS V14.00,2013-03-04 04:35:00,
2013-03-03 23:40:00,32.0,25.3,29.63,SSW,202,0.0,0.0,76,0.00,,---,0.01,VWS V14.00,2013-03-04 04:40:00,
2013-03-03 23:45:00,32.0,25.3,29.63,SW,225,0.0,0.0,76,0.00,,---,0.01,VWS V14.00,2013-03-04 04:45:00,
2013-03-03 23:50:00,32.0,25.3,29.63,SW,225,0.0,0.0,76,0.00,,---,0.01,VWS V14.00,2013-03-04 04:50:00,
2013-03-03 23:55:00,32.0,25.6,29.64,SW,225,0.0,0.0,77,0.00,,---,0.01,VWS V14.00,2013-03-04 04:55:00,